Change the Weather History Date:

Thursday, September 27, 2012

  Actual Average Record
Temperature  
Mean Temperature 70 °F 63 °F  
Max Temperature 85 °F 74 °F 95 °F (1933)
Min Temperature 55 °F 51 °F 38 °F (1940)
Degree Days  
Heating Degree Days 0 4  
Month to date heating degree days 38 41  
Since 1 July heating degree days 38 44  
Cooling Degree Days 5 2  
Month to date cooling degree days 111 113  
Year to date cooling degree days 1230 1011  
Growing Degree Days 20 (Base 50)    
Moisture  
Dew Point 58 °F    
Average Humidity 70    
Maximum Humidity 100    
Minimum Humidity 40    
Precipitation  
Precipitation 0.00 in 0.13 in 1.31 in (1937)
Month to date precipitation 2.35 3.51  
Year to date precipitation 24.90 31.44  
Snow  
Snow 0.00 in - - ()
Month to date snowfall 0.0  
Since 1 July snowfall 0.0  
Since 1 September snowfall 0.0  
Snow Depth 0.00 in    
Sea Level Pressure  
Sea Level Pressure 30.14 in    
Wind  
Wind Speed 1 mph (South)    
Max Wind Speed 8 mph    
Max Gust Speed -    
Visibility 8 miles    
Events      
T = Trace of Precipitation, MM = Missing Value Source: NWS Daily Summary

Daily Weather History Graph

Daily Weather History Graph

Search for Another Location

Airport or City:

Trip Planner

Search our weather history database for the weather conditions in past years. The results will help you decide how hot, cold, wet, or windy it might be!

Date:

Astronomy

Sep. 27, 2012 Rise Set
Actual Time 7:09 AM EDT 7:05 PM EDT
Civil Twilight 6:43 AM EDT 7:31 PM EDT
Nautical Twilight 6:12 AM EDT 8:01 PM EDT
Astronomical Twilight 5:42 AM EDT 8:32 PM EDT
Moon 5:34 PM EDT (9/27) 4:38 AM EDT (9/27)
Length of Visible Light 12h 48m
Length of Day
11h 56m
Waxing Gibbous, 94% of the Moon is Illuminated
Sep 27
Waxing Gibbous
Sep 29
Full
Oct 8
Last Quarter
Oct 15
New
Oct 21
First Quarter

Hourly Weather History & Observations

Time (EDT) Temp. Heat Index Dew Point Humidity Pressure Visibility Wind Dir Wind Speed Gust Speed Precip Events Conditions
12:54 AM 61.0 °F - 59.0 °F 93% 30.17 in 10.0 mi Calm Calm - N/A   Clear
1:54 AM 62.1 °F - 60.1 °F 93% 30.17 in 10.0 mi SSW 3.5 mph - N/A   Clear
2:54 AM 61.0 °F - 60.1 °F 97% 30.16 in 10.0 mi Calm Calm - N/A   Clear
3:54 AM 60.1 °F - 59.0 °F 96% 30.14 in 9.0 mi Calm Calm - N/A   Clear
4:19 AM 57.2 °F - 57.2 °F 100% 30.17 in 1.8 mi Calm Calm - N/A   Clear
4:24 AM 57.2 °F - 57.2 °F 100% 30.17 in 3.0 mi Calm Calm - N/A   Clear
4:54 AM 59.0 °F - 57.9 °F 96% 30.14 in 7.0 mi SSW 3.5 mph - N/A   Clear
5:19 AM 57.2 °F - 57.2 °F 100% 30.16 in 2.5 mi SW 3.5 mph - N/A   Clear
5:41 AM 57.2 °F - 57.2 °F 100% 30.17 in 3.0 mi Calm Calm - N/A   Clear
5:54 AM 55.9 °F - 55.9 °F 100% 30.15 in 4.0 mi Calm Calm - N/A   Clear
6:01 AM 55.4 °F - 55.4 °F 100% 30.17 in 1.8 mi Calm Calm - N/A   Clear
6:06 AM 55.4 °F - 55.4 °F 100% 30.17 in 0.8 mi Calm Calm - N/A   Clear
6:13 AM 55.4 °F - 55.4 °F 100% 30.17 in 1.5 mi South 3.5 mph - N/A   Clear
6:20 AM 57.2 °F - 55.4 °F 94% 30.17 in 10.0 mi SSW 3.5 mph - N/A   Clear
6:54 AM 55.0 °F - 55.0 °F 100% 30.17 in 10.0 mi Calm Calm - N/A   Clear
7:26 AM 55.4 °F - 55.4 °F 100% 30.19 in 10.0 mi Calm Calm - N/A   Scattered Clouds
7:54 AM 57.0 °F - 55.9 °F 96% 30.18 in 10.0 mi South 4.6 mph - N/A   Partly Cloudy
8:54 AM 64.9 °F - 62.1 °F 90% 30.19 in 10.0 mi Calm Calm - N/A   Clear
9:54 AM 73.0 °F - 62.1 °F 68% 30.19 in 10.0 mi Calm Calm - N/A   Clear
10:54 AM 79.0 °F - 61.0 °F 54% 30.18 in 10.0 mi Calm Calm - N/A   Clear
11:54 AM 80.1 °F 80.7 °F 59.0 °F 48% 30.17 in 10.0 mi North 4.6 mph - N/A   Clear
12:54 PM 82.0 °F 82.1 °F 59.0 °F 45% 30.15 in 10.0 mi Calm Calm - N/A   Clear
1:54 PM 82.9 °F 82.6 °F 57.9 °F 42% 30.13 in 10.0 mi Calm Calm - N/A   Clear
2:54 PM 82.0 °F 82.0 °F 57.9 °F 44% 30.11 in 10.0 mi Calm Calm - N/A   Clear
3:54 PM 84.0 °F 83.3 °F 57.0 °F 40% 30.09 in 10.0 mi Calm Calm - N/A   Scattered Clouds
4:54 PM 82.0 °F 82.0 °F 57.9 °F 44% 30.08 in 10.0 mi SSE 4.6 mph - N/A   Clear
5:54 PM 80.1 °F 80.6 °F 57.9 °F 47% 30.08 in 10.0 mi South 5.8 mph - N/A   Clear
6:54 PM 73.9 °F - 60.1 °F 62% 30.09 in 10.0 mi Calm Calm - N/A   Partly Cloudy
7:54 PM 68.0 °F - 60.1 °F 76% 30.09 in 10.0 mi Calm Calm - N/A   Clear
8:54 PM 66.0 °F - 60.1 °F 81% 30.10 in 10.0 mi Calm Calm - N/A   Clear
9:54 PM 64.0 °F - 60.1 °F 87% 30.10 in 10.0 mi Calm Calm - N/A   Clear
10:54 PM 64.9 °F - 60.1 °F 84% 30.09 in 10.0 mi Calm Calm - N/A   Clear
11:54 PM 64.0 °F - 60.1 °F 87% 30.09 in 10.0 mi SSW 3.5 mph - N/A   Clear